Location: Brusselsch Zeekanaal
(50.8667°N, 4.3667°E)
Time: 01:45:17
(UTC+00:00)

ADEOS Rocket - Pass Details

Date: 08 November 2025
Orbit: 859 x 1304 km, 98.7° (Epoch: 13 December)

Event Time Altitude Azimuth Distance (km) Brightness Sun altitude
Rises 02:30:35 0° 18° (NNE) 3,752 6.6 -39.9°
Reaches altitude 10° 02:33:05 10° 24° (NNE) 2,857 5.9 -39.5°
Enters shadow 02:38:46 47° 83° (E) 1,439 4.0 -38.7°
